Wind_Speed
13 14 14 15 15 16 19 22 26 29 32 33 34 34 33 32 32 33 31 30 27 31 33 8 26 27 16 18 19 23 29 19 19 12 8 6 10 9 7 8 3 5 7 4 6 5 6 5 20 12 5 13 20 21
13 14 14 15 15 17 20 23 27 30 32 34 35 34 35 33 31 32 30 30 28 27 29 28 14 8 26 19 20 25 21 26 23 15 13 22 30 24 27 16 9 7 9 8 5 6 18 24 19 11 12 22 22 22
14 14 14 14 16 17 21 24 27 30 33 35 36 36 35 33 32 33 30 30 29 28 28 20 18 14 15 23 19 24 17 17 20 20 21 22 21 21 27 19 23 20 15 13 11 6 12 9 9 14 21 22 20 22
14 14 14 14 16 19 22 25 28 31 34 36 36 36 35 34 33 33 29 28 25 18 25 22 26 20 17 21 21 14 21 16 15 18 23 26 31 20 22 19 15 17 16 17 13 22 23 23 22 22 18 26 24 22
15 14 13 15 17 20 23 26 29 32 34 35 36 36 36 35 34 31 29 25 14 10 22 28 24 9 20 12 17 18 15 14 16 18 18 20 20 19 17 18 24 23 21 19 20 20 21 19 21 23 22 25 22 22
15 15 14 16 18 21 24 27 29 32 34 35 36 37 37 35 33 30 25 16 17 15 22 26 18 13 9 15 11 14 16 20 19 18 18 14 11 14 10 8 9 12 13 15 14 16 17 18 20 23 26 25 24 25
16 15 15 17 19 22 24 27 30 32 34 36 37 37 37 35 30 23 20 18 15 15 17 12 10 11 14 11 16 18 21 19 15 10 5 9 14 10 12 6 11 13 15 17 17 17 20 23 23 23 24 25 25 25
17 16 16 17 19 22 25 27 30 33 35 36 37 38 37 32 24 21 17 14 12 10 7 4 9 15 14 21 23 23 22 14 8 5 7 10 12 12 4 7 10 12 14 15 17 19 20 22 23 23 24 23 22 20
18 17 17 18 21 23 26 28 30 32 34 35 37 37 34 25 21 15 8 5 4 5 4 6 13 14 20 23 23 23 19 9 6 5 7 10 8 4 10 12 11 10 10 11 12 12 14 14 14 14 15 16 15 15
18 18 18 19 21 23 26 29 30 32 34 35 36 35 27 22 14 6 6 8 6 5 5 8 15 18 21 22 22 21 9 6 4 5 8 5 4 6 8 9 8 8 9 9 10 10 11 11 12 11 11 11 10 10
19 19 18 19 21 23 26 28 31 32 33 33 35 30 23 13 4 3 5 6 6 3 8 19 20 24 23 23 20 8 7 6 3 4 5 4 4 7 7 7 7 8 8 9 10 11 12 13 13 13 13 13 13 12
19 18 18 19 21 23 25 28 31 32 34 35 33 26 13 5 3 3 4 4 5 5 19 22 24 24 24 17 9 8 6 4 4 5 5 4 5 7 6 6 7 8 8 10 11 12 13 13 14 15 16 16 15 14
18 18 18 19 21 23 25 27 29 31 32 32 24 10 8 2 3 1 4 5 10 16 20 22 22 23 19 11 10 7 5 6 8 5 4 7 7 8 8 9 9 10 10 11 11 12 13 13 14 15 15 15 16 16
18 19 19 19 21 23 25 27 28 29 29 24 12 8 3 3 4 5 10 16 19 21 19 21 22 18 21 14 8 6 6 5 4 4 6 9 10 11 12 13 13 13 14 13 14 15 16 16 15 15 15 15 15 15
17 18 18 20 22 23 25 26 28 28 25 14 7 4 4 8 11 14 16 19 21 20 21 23 22 18 16 10 6 6 5 5 6 8 11 13 14 16 17 17 17 17 17 17 17 17 18 18 18 17 17 17 17 17
17 17 18 20 21 23 25 26 28 27 20 8 4 10 13 12 13 16 18 20 21 22 22 20 13 8 7 6 6 7 5 7 11 14 16 17 19 20 20 20 20 20 20 20 20 19 19 20 20 21 20 19 18 18
16 17 17 19 21 23 25 25 27 21 6 6 10 14 12 13 15 16 16 17 17 18 17 13 6 6 7 8 8 11 12 18 20 21 22 21 21 20 20 21 21 22 22 22 21 21 21 21 20 20 21 21 20 19
17 17 17 18 21 24 25 26 20 8 9 13 13 11 12 13 14 15 18 20 21 20 17 11 13 16 10 11 16 20 23 26 26 25 24 23 22 21 21 20 21 21 21 21 20 20 20 20 20 19 19 19 20 20
15 17 18 19 21 23 24 25 13 9 12 13 11 11 13 13 15 18 20 21 22 21 20 14 9 12 15 20 22 24 24 24 23 21 20 20 20 20 19 19 19 19 19 20 19 18 18 19 19 19 19 18 18 18
15 17 19 21 22 22 20 14 16 13 10 11 12 12 13 15 16 18 19 20 21 19 15 11 16 20 21 21 21 20 19 19 18 18 18 18 18 18 18 18 17 17 18 19 20 18 18 18 19 19 19 18 19 19
17 18 21 23 23 22 20 15 12 11 11 11 12 15 17 16 17 17 19 18 19 15 16 18 18 17 17 17 17 16 16 16 16 16 15 15 16 17 17 19 19 19 19 20 21 22 21 20 20 21 21 22 22 22
18 20 23 24 25 25 18 13 11 12 12 15 16 15 17 18 17 18 18 17 16 17 17 15 14 15 15 14 14 13 14 14 15 17 19 20 20 22 23 23 23 23 22 22 23 23 23 24 23 23 23 23 24 24
20 22 25 27 23 9 9 9 11 12 11 15 17 17 17 18 21 18 12 16 19 17 12 13 15 14 13 12 12 13 14 16 18 19 22 25 25 25 24 24 24 24 23 23 23 23 23 23 24 24 24 24 24 25
22 25 24 10 7 8 10 10 12 13 13 15 18 20 21 21 20 17 17 20 16 10 15 16 14 13 12 13 13 14 16 19 22 26 28 28 28 27 25 24 24 23 22 22 22 23 23 24 24 25 26 25 25 26
23 14 7 11 10 8 8 10 11 12 15 17 19 21 18 17 16 20 19 10 8 15 17 15 13 12 13 13 14 16 20 23 27 30 30 28 25 25 24 22 21 21 22 22 23 23 24 25 26 27 27 27 25 24
8 7 7 8 9 10 9 10 10 13 18 19 12 14 16 16 14 8 9 10 16 18 14 13 12 12 13 14 17 19 23 28 31 29 26 23 22 22 22 22 22 23 23 23 23 22 22 23 23 23 23 22 22 23
9 10 13 15 16 14 15 15 15 17 18 16 16 13 10 6 6 7 10 19 17 15 13 12 11 12 15 17 20 25 30 30 27 24 24 24 23 23 23 22 22 23 22 22 22 22 22 22 21 21 20 18 18 20
12 14 13 13 13 15 15 15 17 16 11 11 10 9 7 6 10 17 19 17 14 12 11 12 13 15 17 20 25 29 27 24 24 24 24 24 24 25 25 25 25 25 24 22 21 22 23 22 21 22 22 20 19 19
17 16 14 14 15 15 15 15 15 16 15 14 15 14 14 15 15 15 14 12 11 11 12 13 14 17 20 25 26 25 26 24 24 23 23 23 24 26 27 27 27 26 26 24 22 24 27 27 27 27 28 27 26 25
12 12 13 14 14 15 14 15 16 15 14 13 13 13 12 12 12 13 11 11 11 11 13 15 17 21 22 19 17 18 24 26 26 25 24 23 23 23 23 24 24 24 24 23 22 21 23 26 26 26 26 26 26 24
10 10 12 13 14 14 15 15 14 13 12 11 11 11 11 11 11 10 10 11 11 13 15 18 19 19 17 19 20 19 18 20 21 22 22 21 20 21 22 22 22 20 19 20 21 21 22 22 22 22 21 21 21 22
10 11 13 14 14 14 13 12 12 11 11 10 11 11 11 10 8 9 9 11 13 16 17 14 14 15 17 17 19 19 19 19 19 20 20 20 20 20 21 22 23 22 22 22 22 22 21 21 20 19 18 17 17 18
12 13 14 13 13 12 11 10 10 9 9 10 10 10 8 7 7 9 10 13 15 12 11 12 14 14 14 15 15 16 17 18 19 19 20 21 22 23 24 25 26 27 26 26 25 24 23 21 20 18 17 17 17 16
Wind_Direction
296 297 308 316 324 333 343 346 343 342 342 344 342 340 338 336 331 328 328 323 316 314 319 314 318 319 325 331 311 308 312 324 331 297 275 280 282 259 268 246 308 321 333 288 236 227 275 277 322 319 293 321 324 315
288 296 306 313 322 334 339 342 340 340 341 341 341 339 337 336 332 328 327 321 318 312 312 323 314 274 316 307 315 321 309 314 293 287 287 295 298 289 283 279 288 296 310 279 297 281 299 296 309 308 305 318 317 313
283 293 301 310 319 330 336 340 337 339 340 340 340 339 338 335 332 328 328 322 320 318 328 331 318 318 325 314 317 313 316 320 305 300 302 297 293 285 291 288 291 299 280 286 259 287 287 278 281 291 299 302 309 308
282 286 294 308 319 329 334 336 336 338 339 340 340 339 337 334 331 326 326 321 323 314 304 329 324 316 323 318 316 303 324 320 313 295 276 276 281 286 280 281 285 272 268 277 280 288 284 280 278 291 295 305 302 306
275 282 293 306 317 327 332 333 335 338 339 339 339 338 336 333 329 325 321 322 322 326 292 318 326 310 325 325 329 316 323 328 319 309 297 293 298 299 299 280 268 267 267 269 276 279 273 276 285 290 299 308 301 293
271 278 294 306 319 326 330 332 335 337 338 337 338 337 336 334 329 323 322 326 320 318 320 320 332 335 329 328 330 330 325 320 314 306 302 299 298 290 271 263 267 278 283 293 297 299 291 291 295 297 299 299 299 302
266 279 291 305 319 324 329 332 335 336 336 338 337 337 336 334 329 325 322 321 321 316 315 320 334 338 332 339 332 332 328 324 320 318 336 323 309 286 282 280 305 301 301 304 304 299 297 297 297 297 298 299 299 296
266 278 291 307 315 322 328 332 334 334 336 337 338 338 339 334 329 326 328 327 318 311 316 308 327 332 340 340 337 337 335 336 337 342 316 299 301 298 282 322 325 322 317 310 307 304 302 299 298 299 300 300 299 297
267 278 293 305 314 322 327 332 333 334 336 336 338 339 339 335 337 343 351 21 25 13 327 349 344 333 334 339 336 337 331 325 322 315 299 304 303 286 316 323 322 324 325 327 325 326 327 326 324 323 320 318 313 307
268 278 290 302 312 321 327 330 331 333 336 338 339 340 341 339 339 3 23 13 13 33 40 352 333 331 328 336 331 328 310 314 308 294 319 290 294 327 338 337 344 352 355 357 358 350 347 345 345 346 347 346 340 331
268 278 290 301 311 319 326 327 329 334 337 338 339 340 336 336 346 24 21 9 350 333 343 337 328 327 327 328 323 312 307 292 280 266 309 272 267 326 335 345 352 356 356 358 2 4 3 3 4 3 2 0 357 352
269 279 290 300 312 320 322 326 331 335 338 339 338 336 329 346 1 6 18 352 330 329 332 328 322 322 320 320 311 301 289 267 258 279 275 255 259 308 318 327 332 337 341 345 348 349 350 349 349 348 351 351 353 355
273 283 292 304 313 318 321 327 333 335 338 337 336 322 333 341 328 350 345 314 323 321 322 317 317 316 309 306 290 273 262 249 284 254 242 249 263 287 295 306 308 316 320 326 331 334 337 338 339 340 338 337 337 338
278 285 296 305 310 315 322 329 332 334 336 336 320 297 282 269 263 289 311 318 321 323 319 317 318 302 294 292 263 264 258 274 252 241 248 252 261 272 277 283 290 295 302 308 313 317 321 325 327 326 326 325 324 324
277 286 295 302 310 317 323 327 331 333 333 328 305 291 278 286 288 296 308 316 321 315 314 313 313 304 284 260 258 266 257 247 244 242 249 255 261 269 273 276 279 283 287 293 297 300 304 308 312 313 314 313 311 310
276 285 292 300 311 318 322 326 330 328 329 303 250 294 296 293 291 296 304 306 310 307 311 315 304 274 260 250 250 247 252 243 267 276 279 284 288 291 290 289 289 289 289 290 291 292 294 297 299 302 305 305 302 299
275 281 290 303 311 316 320 324 326 321 294 281 302 304 301 298 298 300 305 307 311 311 310 308 268 253 266 253 248 247 257 279 291 298 300 300 298 295 294 291 290 290 291 291 291 292 293 295 296 296 296 299 301 301
275 285 295 307 312 314 316 322 315 278 279 296 299 298 301 300 304 308 307 309 310 310 307 293 275 257 249 264 274 283 288 294 296 299 301 301 300 298 296 296 295 294 294 294 295 295 294 293 293 294 294 295 296 297
279 289 297 307 310 314 319 317 304 285 295 295 289 298 300 299 301 304 304 304 303 302 303 296 274 268 271 279 286 291 295 298 301 303 303 303 303 303 304 304 302 301 299 298 298 297 296 297 297 297 295 295 294 294
283 292 302 308 312 314 317 291 292 285 280 289 290 296 297 300 303 304 304 303 302 306 306 287 287 287 290 293 295 298 301 305 308 311 314 314 314 313 312 309 307 305 303 302 302 302 302 302 302 302 303 303 303 303
289 298 300 305 310 310 304 282 274 282 284 284 296 305 303 307 308 306 307 307 309 305 303 301 297 298 301 302 303 307 311 314 318 321 322 319 318 317 315 312 311 309 305 304 302 303 302 300 300 299 299 300 301 300
293 297 301 307 308 308 290 273 267 278 272 286 297 298 299 305 306 312 307 308 306 307 305 307 311 312 310 312 313 318 323 325 322 321 322 322 320 316 313 310 307 305 303 300 299 299 299 299 299 298 297 297 297 297
293 298 302 306 302 278 263 258 268 273 273 291 302 301 303 308 310 311 304 308 308 308 312 320 318 313 314 317 319 322 321 319 317 318 321 320 318 315 311 307 305 303 303 302 300 300 299 299 298 299 298 298 297 295
294 299 303 284 237 240 262 272 279 273 285 300 302 300 301 303 304 297 300 308 304 305 324 322 315 311 313 314 314 313 315 318 319 320 321 320 317 315 312 311 310 308 307 306 305 304 303 302 301 299 298 298 297 297
302 294 252 251 252 244 262 277 279 277 292 306 300 298 290 292 292 300 298 296 303 325 322 316 311 311 309 309 313 315 319 322 322 322 321 319 318 316 316 315 314 312 310 309 308 306 305 304 304 303 303 303 303 301
258 241 235 247 246 250 267 276 279 291 302 303 294 292 291 294 292 265 276 302 323 322 317 313 310 310 311 312 314 317 320 323 323 323 323 323 323 322 319 318 317 315 314 313 311 308 305 303 304 305 305 306 306 304
234 240 251 255 256 269 278 279 281 295 300 301 297 287 292 270 264 259 292 315 321 320 314 312 310 310 312 314 317 320 323 326 325 327 326 326 326 325 324 323 322 320 319 318 317 314 312 311 310 307 306 306 306 302
251 258 260 265 267 275 271 274 287 298 297 287 278 282 270 260 280 296 306 315 317 316 314 313 313 312 311 314 319 321 324 327 327 328 328 327 326 324 324 323 323 324 324 323 319 314 312 316 318 316 314 315 311 309
264 269 266 269 271 270 271 278 285 292 292 286 284 287 284 287 295 301 311 313 317 320 319 319 316 314 315 320 324 323 324 328 330 331 329 327 326 324 324 323 323 323 321 322 323 316 313 315 317 318 318 320 319 319
256 259 264 267 267 269 279 282 290 292 289 285 284 288 293 299 304 309 310 319 325 327 323 320 318 319 322 327 328 326 323 327 330 331 332 332 330 327 325 326 326 326 327 323 316 309 303 304 307 308 307 307 309 310
263 261 262 267 273 279 283 288 289 287 285 286 292 294 299 304 307 307 317 326 328 325 322 322 323 326 334 333 332 335 335 331 332 334 339 341 340 338 338 339 339 340 334 328 322 319 315 312 310 309 309 310 310 311
264 268 274 275 276 281 284 285 284 282 287 291 293 296 298 301 298 314 321 324 323 321 324 327 329 330 336 338 340 344 346 347 348 351 352 353 352 350 351 358 359 356 349 344 341 338 334 331 329 328 328 325 322 321
271 272 271 272 281 284 285 282 283 286 288 293 293 290 289 294 306 315 318 321 322 326 329 330 335 344 345 350 354 355 357 357 359 2 3 3 3 3 1 3 6 3 358 354 350 349 349 347 345 343 342 339 336 336
Height
3097 3096 3094 3092 3089 3086 3083 3078 3075 3071 3065 3059 3053 3047 3040 3034 3027 3021 3017 3011 3006 3000 2995 2994 2993 2990 2989 2987 2983 2981 2978 2974 2971 2969 2966 2963 2960 2957 2954 2953 2953 2952 2950 2948 2946 2945 2945 2943 2943 2943 2941 2938 2935 2933
3093 3092 3089 3088 3085 3082 3078 3074 3071 3067 3062 3055 3048 3042 3035 3029 3023 3017 3012 3005 3000 2995 2992 2990 2986 2986 2985 2983 2980 2977 2976 2972 2970 2967 2966 2962 2960 2957 2954 2953 2952 2952 2951 2949 2948 2945 2942 2939 2940 2939 2937 2935 2932 2930
3089 3087 3086 3084 3081 3077 3074 3070 3067 3062 3057 3051 3044 3037 3030 3023 3016 3011 3007 3001 2996 2990 2988 2986 2986 2983 2981 2979 2977 2974 2971 2968 2964 2963 2961 2959 2958 2956 2952 2950 2948 2947 2946 2945 2944 2942 2940 2939 2938 2937 2934 2932 2929 2927
3084 3083 3081 3079 3076 3073 3070 3066 3063 3057 3052 3045 3039 3032 3025 3018 3012 3005 3002 2996 2991 2987 2984 2982 2981 2980 2978 2975 2972 2969 2966 2963 2960 2959 2957 2955 2953 2951 2947 2947 2945 2943 2942 2941 2939 2938 2937 2935 2934 2932 2931 2928 2926 2923
3078 3078 3076 3074 3072 3069 3065 3062 3058 3053 3047 3040 3033 3027 3019 3012 3006 3001 2995 2993 2989 2990 2983 2981 2977 2976 2974 2971 2968 2965 2962 2959 2956 2954 2951 2949 2947 2945 2942 2941 2939 2937 2937 2936 2935 2934 2932 2931 2929 2928 2926 2923 2921 2919
3074 3072 3071 3069 3066 3064 3061 3057 3053 3048 3041 3034 3027 3020 3013 3007 3000 2995 2990 2988 2986 2983 2981 2976 2974 2972 2971 2968 2966 2963 2959 2955 2951 2948 2946 2944 2944 2943 2940 2937 2935 2934 2932 2931 2931 2929 2927 2926 2924 2922 2921 2918 2916 2913
3068 3067 3066 3064 3062 3059 3055 3052 3046 3041 3035 3028 3021 3014 3007 3001 2995 2992 2989 2985 2981 2978 2977 2974 2974 2973 2970 2967 2963 2960 2955 2951 2947 2944 2943 2943 2941 2940 2937 2935 2934 2932 2931 2929 2927 2925 2923 2921 2919 2917 2915 2912 2909 2907
3063 3062 3061 3059 3056 3053 3050 3046 3040 3035 3029 3021 3015 3008 3001 2994 2989 2986 2982 2979 2977 2977 2976 2975 2974 2971 2969 2965 2960 2955 2951 2947 2944 2943 2943 2941 2939 2937 2935 2933 2931 2930 2928 2926 2923 2921 2919 2916 2913 2911 2908 2906 2904 2903
3057 3057 3055 3053 3050 3047 3043 3038 3034 3029 3022 3016 3009 3001 2995 2990 2985 2982 2978 2977 2976 2979 2976 2976 2975 2971 2967 2962 2957 2952 2948 2946 2944 2942 2941 2940 2937 2935 2933 2931 2929 2927 2925 2923 2920 2918 2915 2912 2910 2907 2905 2902 2900 2898
3051 3050 3049 3047 3044 3041 3036 3032 3028 3022 3016 3010 3003 2996 2989 2986 2981 2981 2978 2979 2979 2978 2977 2977 2974 2971 2968 2961 2955 2951 2946 2945 2942 2942 2939 2937 2935 2934 2932 2930 2928 2926 2924 2922 2920 2918 2915 2912 2909 2906 2903 2901 2898 2896
3045 3044 3042 3040 3038 3034 3030 3026 3022 3016 3010 3005 2997 2991 2986 2982 2981 2979 2979 2979 2977 2977 2976 2975 2972 2968 2964 2959 2954 2950 2946 2943 2942 2941 2939 2936 2933 2932 2930 2929 2927 2925 2924 2922 2920 2917 2914 2912 2909 2907 2904 2901 2898 2896
3038 3037 3035 3034 3031 3027 3024 3020 3014 3009 3002 2997 2992 2985 2982 2980 2979 2981 2979 2978 2978 2977 2975 2972 2968 2964 2960 2956 2952 2948 2944 2942 2940 2939 2937 2933 2932 2930 2929 2927 2926 2924 2923 2921 2919 2916 2914 2911 2909 2906 2903 2901 2898 2896
3030 3030 3029 3027 3024 3021 3018 3013 3008 3002 2997 2990 2986 2981 2981 2981 2980 2979 2979 2978 2979 2976 2973 2969 2966 2961 2956 2954 2950 2946 2942 2939 2937 2936 2933 2930 2929 2928 2927 2926 2924 2923 2921 2919 2917 2915 2913 2910 2908 2906 2903 2900 2897 2895
3023 3022 3021 3019 3018 3015 3011 3007 3002 2997 2990 2986 2982 2980 2980 2978 2977 2976 2976 2976 2975 2971 2969 2965 2962 2959 2954 2951 2947 2942 2939 2937 2934 2932 2929 2927 2926 2925 2924 2922 2921 2919 2917 2916 2914 2912 2910 2907 2905 2903 2901 2899 2896 2894
3017 3016 3014 3013 3011 3008 3004 3000 2995 2990 2986 2982 2980 2977 2976 2976 2975 2974 2973 2972 2970 2967 2964 2961 2957 2954 2950 2947 2944 2940 2937 2933 2930 2927 2925 2923 2922 2921 2919 2918 2916 2914 2913 2911 2909 2907 2905 2903 2901 2899 2897 2895 2894 2891
3010 3010 3009 3007 3005 3001 2998 2994 2989 2984 2980 2978 2975 2974 2973 2971 2970 2969 2968 2966 2964 2963 2960 2957 2953 2949 2947 2944 2940 2937 2933 2928 2926 2925 2923 2920 2919 2917 2915 2913 2911 2909 2907 2906 2904 2902 2900 2899 2896 2894 2892 2890 2888 2887
3004 3004 3003 3000 2997 2994 2991 2987 2983 2978 2975 2973 2971 2970 2968 2967 2966 2964 2963 2962 2960 2959 2955 2952 2950 2947 2943 2938 2934 2932 2928 2926 2923 2921 2919 2916 2914 2912 2910 2908 2906 2903 2902 2900 2898 2896 2894 2892 2890 2888 2886 2883 2882 2880
2997 2997 2995 2992 2990 2987 2983 2980 2976 2973 2970 2969 2968 2967 2964 2963 2962 2961 2959 2956 2955 2953 2951 2948 2944 2941 2938 2933 2930 2928 2924 2921 2918 2915 2913 2910 2908 2906 2904 2902 2900 2898 2895 2893 2891 2889 2887 2885 2884 2882 2880 2877 2875 2873
2991 2990 2988 2985 2983 2980 2977 2973 2971 2967 2964 2963 2962 2962 2960 2959 2957 2956 2954 2952 2950 2946 2944 2940 2938 2934 2932 2928 2925 2922 2919 2916 2913 2910 2908 2905 2903 2900 2898 2896 2894 2892 2890 2887 2885 2883 2881 2879 2877 2876 2874 2872 2870 2868
2983 2982 2980 2978 2976 2973 2970 2968 2965 2961 2958 2959 2957 2955 2954 2953 2952 2950 2948 2946 2944 2941 2937 2935 2932 2929 2926 2922 2919 2916 2913 2911 2908 2906 2903 2901 2899 2896 2894 2892 2890 2887 2885 2882 2879 2878 2876 2874 2872 2869 2868 2866 2864 2862
2976 2974 2973 2972 2969 2967 2964 2960 2958 2956 2953 2953 2952 2951 2948 2947 2945 2944 2942 2939 2937 2935 2932 2929 2926 2923 2920 2917 2914 2912 2909 2907 2905 2903 2901 2899 2896 2893 2891 2888 2886 2883 2880 2877 2874 2872 2870 2868 2867 2864 2862 2859 2857 2855
2969 2968 2966 2963 2961 2958 2955 2953 2953 2952 2950 2948 2947 2945 2943 2941 2940 2939 2936 2934 2932 2930 2926 2923 2921 2918 2916 2913 2911 2908 2906 2905 2903 2900 2897 2895 2892 2889 2885 2882 2880 2877 2874 2871 2869 2866 2863 2861 2859 2857 2855 2853 2851 2848
2962 2961 2958 2956 2953 2950 2950 2948 2948 2947 2946 2944 2942 2940 2938 2936 2935 2933 2932 2929 2927 2924 2921 2919 2916 2914 2912 2910 2908 2906 2904 2902 2900 2897 2894 2890 2886 2883 2879 2876 2874 2871 2868 2865 2862 2859 2857 2854 2852 2849 2847 2845 2844 2841
2956 2953 2950 2948 2946 2944 2944 2943 2942 2942 2941 2940 2938 2936 2934 2931 2929 2927 2925 2923 2921 2919 2917 2914 2912 2910 2908 2907 2905 2903 2901 2899 2896 2892 2888 2884 2880 2876 2872 2869 2866 2863 2861 2858 2855 2852 2849 2847 2844 2842 2839 2837 2835 2832
2950 2947 2945 2941 2941 2939 2938 2938 2938 2938 2937 2935 2933 2931 2929 2927 2924 2921 2919 2917 2916 2915 2913 2910 2909 2907 2905 2904 2902 2900 2897 2894 2891 2887 2882 2878 2874 2869 2866 2863 2861 2858 2855 2852 2848 2845 2842 2839 2836 2833 2830 2827 2826 2823
2941 2939 2940 2936 2935 2935 2933 2933 2932 2932 2931 2930 2927 2926 2924 2922 2920 2916 2914 2914 2913 2911 2909 2907 2905 2903 2902 2901 2898 2896 2893 2889 2885 2880 2876 2872 2868 2865 2862 2858 2855 2852 2848 2845 2842 2838 2835 2832 2829 2826 2824 2821 2818 2815
2933 2932 2932 2931 2931 2931 2929 2929 2928 2928 2927 2924 2922 2921 2920 2917 2914 2913 2912 2910 2908 2907 2905 2904 2902 2900 2899 2897 2894 2890 2887 2883 2879 2875 2871 2867 2863 2860 2856 2853 2849 2846 2842 2839 2835 2831 2828 2825 2823 2820 2817 2815 2812 2809
2927 2926 2927 2927 2926 2925 2924 2923 2923 2922 2920 2919 2919 2918 2917 2914 2912 2910 2908 2906 2905 2903 2902 2900 2899 2897 2896 2893 2890 2885 2882 2878 2874 2870 2866 2862 2858 2854 2850 2847 2843 2839 2836 2833 2829 2825 2821 2818 2816 2812 2809 2807 2805 2802
2920 2921 2921 2921 2920 2920 2920 2920 2919 2917 2915 2915 2914 2913 2911 2909 2907 2905 2904 2903 2902 2900 2899 2897 2896 2894 2892 2889 2884 2879 2876 2873 2870 2866 2862 2858 2854 2849 2844 2841 2837 2834 2830 2827 2824 2819 2814 2811 2808 2805 2802 2799 2797 2794
2914 2914 2914 2914 2915 2914 2916 2916 2913 2912 2911 2910 2910 2907 2906 2904 2903 2902 2900 2899 2898 2897 2896 2894 2892 2890 2887 2884 2881 2878 2872 2868 2864 2861 2857 2854 2850 2846 2841 2837 2833 2829 2826 2822 2818 2815 2811 2807 2804 2801 2798 2794 2791 2788
2909 2909 2910 2910 2910 2909 2909 2909 2907 2906 2906 2906 2905 2903 2901 2900 2899 2898 2897 2896 2895 2894 2893 2891 2888 2884 2882 2879 2876 2874 2871 2866 2862 2857 2854 2850 2846 2842 2837 2834 2830 2826 2822 2817 2813 2809 2805 2802 2798 2795 2792 2789 2785 2782
2905 2905 2905 2904 2905 2904 2903 2903 2902 2902 2902 2901 2900 2899 2897 2896 2896 2895 2895 2894 2893 2891 2889 2887 2884 2882 2879 2876 2873 2869 2866 2862 2859 2855 2852 2848 2844 2840 2836 2831 2827 2822 2818 2813 2809 2804 2800 2796 2793 2789 2786 2784 2780 2777
2900 2900 2900 2900 2898 2898 2898 2899 2898 2898 2897 2896 2895 2895 2894 2894 2893 2893 2892 2891 2890 2887 2885 2883 2881 2879 2877 2874 2871 2868 2864 2861 2857 2854 2851 2847 2842 2838 2834 2830 2825 2820 2815 2810 2805 2801 2797 2793 2789 2786 2783 2780 2777 2774